Time,TemperatureF,DewpointF,PressureIn,WindDirection,WindDirectionDegrees,WindSpeedMPH,WindSpeedGustMPH,Humidity,HourlyPrecipIn,Conditions,Clouds,dailyrainin,SoftwareType,DateUTC
2013-09-13 00:14:00,66.0,62.0,29.83,SSW,202,0.0,0.0,88,0.16,,,0.34,,2013-09-13 04:14:00,
2013-09-13 00:24:00,65.0,61.0,29.83,SSW,202,0.0,0.0,88,0.16,,,0.34,,2013-09-13 04:24:00,
2013-09-13 00:54:00,64.0,60.0,29.84,SSW,202,0.0,0.0,87,0.16,,,0.34,,2013-09-13 04:54:00,
2013-09-13 01:13:00,64.0,60.0,29.83,SSW,202,0.0,0.0,87,0.00,,,0.34,,2013-09-13 05:13:00,
2013-09-13 01:22:00,63.0,59.0,29.83,SSW,202,0.0,0.0,87,0.00,,,0.34,,2013-09-13 05:22:00,
2013-09-13 01:53:00,62.0,58.0,29.82,SSW,202,0.0,0.0,87,0.00,,,0.34,,2013-09-13 05:53:00,
2013-09-13 02:12:00,62.0,58.0,29.82,SSW,202,0.0,0.0,88,0.00,,,0.34,,2013-09-13 06:12:00,
2013-09-13 02:22:00,62.0,58.0,29.83,SSW,202,0.0,0.0,88,0.00,,,0.34,,2013-09-13 06:22:00,
2013-09-13 02:52:00,61.0,57.0,29.84,SSW,202,0.0,0.0,88,0.00,,,0.34,,2013-09-13 06:52:00,
2013-09-13 03:11:00,61.0,57.0,29.84,SSW,202,0.0,0.0,88,0.00,,,0.34,,2013-09-13 07:11:00,
2013-09-13 03:22:00,60.0,56.0,29.83,SSW,202,0.0,0.0,88,0.00,,,0.34,,2013-09-13 07:22:00,
2013-09-13 03:52:00,60.0,56.0,29.83,SSW,202,0.0,0.0,87,0.00,,,0.34,,2013-09-13 07:52:00,
2013-09-13 04:11:00,60.0,56.0,29.83,SSW,202,0.0,0.0,87,0.00,,,0.34,,2013-09-13 08:11:00,
2013-09-13 04:22:00,59.0,55.0,29.83,SSW,202,0.0,0.0,87,0.00,,,0.34,,2013-09-13 08:22:00,
2013-09-13 04:42:00,59.0,55.0,29.83,SSW,202,0.0,0.0,86,0.00,,,0.34,,2013-09-13 08:42:00,
2013-09-13 04:52:00,59.0,55.0,29.83,SSW,202,0.0,0.0,86,0.02,,,0.36,,2013-09-13 08:52:00,
2013-09-13 05:12:00,59.0,55.0,29.82,SSW,202,0.0,14.0,86,0.02,,,0.36,,2013-09-13 09:12:00,
2013-09-13 05:21:00,58.0,54.0,29.81,SSW,202,0.0,0.0,86,0.02,,,0.36,,2013-09-13 09:21:00,
2013-09-13 05:43:00,58.0,54.0,29.82,SSW,202,0.0,0.0,86,0.02,,,0.36,,2013-09-13 09:43:00,
2013-09-13 05:53:00,58.0,54.0,29.82,SSW,202,0.0,0.0,87,0.00,,,0.36,,2013-09-13 09:53:00,
2013-09-13 06:13:00,58.0,54.0,29.83,SSW,202,0.0,0.0,87,0.00,,,0.36,,2013-09-13 10:13:00,
2013-09-13 06:23:00,58.0,54.0,29.82,SSW,202,0.0,0.0,88,0.00,,,0.36,,2013-09-13 10:23:00,
2013-09-13 06:42:00,58.0,54.0,29.83,SSW,202,0.0,0.0,88,0.00,,,0.36,,2013-09-13 10:42:00,
2013-09-13 06:53:00,57.0,53.0,29.84,SSW,202,0.0,0.0,88,0.00,,,0.36,,2013-09-13 10:53:00,
2013-09-13 07:12:00,57.0,53.0,29.84,SSW,202,0.0,0.0,88,0.00,,,0.36,,2013-09-13 11:12:00,
2013-09-13 07:22:00,57.0,53.0,29.85,SSW,202,0.0,0.0,88,0.00,,,0.36,,2013-09-13 11:22:00,
2013-09-13 07:52:00,56.0,52.0,29.87,SW,218,1.0,14.0,87,0.00,,,0.36,,2013-09-13 11:52:00,
2013-09-13 08:12:00,56.0,52.0,29.87,SSW,202,0.0,0.0,87,0.00,,,0.36,,2013-09-13 12:12:00,
2013-09-13 08:22:00,56.0,52.0,29.87,SSW,202,0.0,0.0,88,0.00,,,0.36,,2013-09-13 12:22:00,
2013-09-13 08:42:00,56.0,52.0,29.87,SSW,202,0.0,0.0,88,0.00,,,0.36,,2013-09-13 12:42:00,
2013-09-13 08:52:00,57.0,53.0,29.87,SSW,202,0.0,0.0,88,0.00,,,0.36,,2013-09-13 12:52:00,
2013-09-13 09:11:00,57.0,53.0,29.87,SSW,202,0.0,0.0,88,0.00,,,0.36,,2013-09-13 13:11:00,
2013-09-13 09:21:00,57.0,53.0,29.88,SSW,202,0.0,0.0,88,0.00,,,0.36,,2013-09-13 13:21:00,
2013-09-13 09:52:00,57.0,53.0,29.88,SSW,202,0.0,0.0,88,0.00,,,0.36,,2013-09-13 13:52:00,
2013-09-13 10:10:00,58.0,54.0,29.88,South,180,0.0,0.0,87,0.00,,,0.36,,2013-09-13 14:10:00,
2013-09-13 10:11:00,57.0,53.0,29.88,South,180,0.0,0.0,87,0.00,,,0.36,,2013-09-13 14:11:00,
2013-09-13 10:22:00,58.0,54.0,29.88,South,180,0.0,0.0,87,0.00,,,0.36,,2013-09-13 14:22:00,
2013-09-13 10:42:00,58.0,54.0,29.88,South,180,0.0,0.0,87,0.00,,,0.36,,2013-09-13 14:42:00,
2013-09-13 10:52:00,58.0,54.0,29.88,South,180,0.0,0.0,87,0.00,,,0.36,,2013-09-13 14:52:00,
2013-09-13 11:02:00,58.0,54.0,29.88,South,180,0.0,0.0,87,0.00,,,0.36,,2013-09-13 15:02:00,
2013-09-13 11:44:00,59.0,54.0,29.88,South,180,0.0,0.0,85,0.00,,,0.36,,2013-09-13 15:44:00,
2013-09-13 11:54:00,60.0,54.0,29.88,South,180,1.0,2.0,82,0.00,,,0.36,,2013-09-13 15:54:00,
2013-09-13 12:12:00,61.0,54.0,29.88,SSE,158,0.0,0.0,79,0.00,,,0.36,,2013-09-13 16:12:00,
2013-09-13 12:24:00,61.0,54.0,29.88,South,180,0.0,0.0,79,0.00,,,0.36,,2013-09-13 16:24:00,
2013-09-13 12:54:00,62.0,55.0,29.87,South,180,0.0,0.0,77,0.00,,,0.36,,2013-09-13 16:54:00,
2013-09-13 13:13:00,62.0,54.0,29.88,SSW,202,0.0,0.0,74,0.00,,,0.36,,2013-09-13 17:13:00,
2013-09-13 13:24:00,62.0,54.0,29.88,SSE,158,0.0,0.0,75,0.00,,,0.36,,2013-09-13 17:24:00,
2013-09-13 13:53:00,62.0,54.0,29.88,SSW,202,0.0,3.0,76,0.00,,,0.36,,2013-09-13 17:53:00,
2013-09-13 14:12:00,63.0,54.0,29.87,SSW,202,0.0,2.0,72,0.00,,,0.36,,2013-09-13 18:12:00,
2013-09-13 14:22:00,63.0,54.0,29.87,SSW,202,0.0,0.0,73,0.00,,,0.36,,2013-09-13 18:22:00,
2013-09-13 14:42:00,63.0,54.0,29.87,SSW,202,0.0,0.0,72,0.00,,,0.36,,2013-09-13 18:42:00,
2013-09-13 14:52:00,63.0,53.0,29.87,SSW,213,0.0,5.0,71,0.00,,,0.32,,2013-09-13 18:52:00,
2013-09-13 15:11:00,64.0,53.0,29.87,West,271,0.0,2.0,67,0.00,,,0.22,,2013-09-13 19:11:00,
2013-09-13 15:22:00,64.0,52.0,29.86,North,0,0.0,1.0,66,0.00,,,0.22,,2013-09-13 19:22:00,
2013-09-13 15:43:00,64.0,52.0,29.86,NNW,327,1.0,3.0,66,0.00,,,0.22,,2013-09-13 19:43:00,
2013-09-13 15:52:00,64.0,52.0,29.86,NNW,327,1.0,3.0,66,0.00,,,0.22,,2013-09-13 19:52:00,
2013-09-13 16:11:00,60.0,52.0,29.89,SW,225,0.0,0.0,74,0.00,,,0.22,,2013-09-13 20:11:00,
2013-09-13 16:22:00,60.0,53.0,29.88,SSW,202,0.0,0.0,78,0.02,,,0.24,,2013-09-13 20:22:00,
2013-09-13 16:52:00,59.0,52.0,29.89,SSW,202,0.0,0.0,77,0.02,,,0.24,,2013-09-13 20:52:00,
2013-09-13 17:12:00,58.0,52.0,29.90,North,0,0.0,1.0,79,0.02,,,0.24,,2013-09-13 21:12:00,
2013-09-13 17:22:00,58.0,51.0,29.90,NE,45,0.0,2.0,78,0.00,,,0.24,,2013-09-13 21:22:00,
2013-09-13 17:54:00,58.0,51.0,29.91,NNW,338,0.0,0.0,78,0.00,,,0.24,,2013-09-13 21:54:00,
2013-09-13 18:13:00,58.0,50.0,29.91,NNW,338,0.0,2.0,75,0.00,,,0.22,,2013-09-13 22:13:00,
2013-09-13 18:24:00,58.0,50.0,29.91,North,0,0.0,3.0,75,0.00,,,0.22,,2013-09-13 22:24:00,
2013-09-13 18:53:00,57.0,50.0,29.92,North,0,0.0,0.0,76,0.00,,,0.22,,2013-09-13 22:53:00,
2013-09-13 19:12:00,56.0,49.0,29.93,North,0,0.0,0.0,76,0.00,,,0.22,,2013-09-13 23:12:00,
2013-09-13 19:22:00,56.0,49.0,29.93,North,0,0.0,0.0,77,0.00,,,0.22,,2013-09-13 23:22:00,
2013-09-13 19:53:00,56.0,49.0,29.93,South,180,0.0,0.0,78,0.00,,,0.22,,2013-09-13 23:53:00,
2013-09-13 20:12:00,56.0,49.0,29.93,South,180,0.0,0.0,78,0.00,,,0.22,,2013-09-14 00:12:00,
2013-09-13 20:22:00,56.0,49.0,29.94,South,180,0.0,0.0,78,0.00,,,0.22,,2013-09-14 00:22:00,
2013-09-13 20:42:00,55.0,48.0,29.95,South,180,0.0,0.0,78,0.00,,,0.22,,2013-09-14 00:42:00,
2013-09-13 20:53:00,55.0,48.0,29.96,South,180,0.0,0.0,78,0.00,,,0.22,,2013-09-14 00:53:00,
2013-09-13 21:12:00,54.0,47.0,29.97,South,180,0.0,0.0,77,0.00,,,0.22,,2013-09-14 01:12:00,
2013-09-13 21:22:00,54.0,47.0,29.97,South,180,0.0,0.0,77,0.00,,,0.22,,2013-09-14 01:22:00,
2013-09-13 21:42:00,54.0,47.0,29.97,South,180,0.0,0.0,78,0.00,,,0.22,,2013-09-14 01:42:00,
2013-09-13 21:52:00,54.0,47.0,29.97,South,180,0.0,0.0,78,0.00,,,0.22,,2013-09-14 01:52:00,
2013-09-13 22:12:00,53.0,46.0,29.98,South,180,0.0,0.0,78,0.00,,,0.20,,2013-09-14 02:12:00,
2013-09-13 22:22:00,53.0,46.0,29.98,South,180,0.0,0.0,78,0.00,,,0.20,,2013-09-14 02:22:00,
2013-09-13 22:42:00,53.0,46.0,29.98,South,180,0.0,0.0,78,0.00,,,0.20,,2013-09-14 02:42:00,
2013-09-13 22:52:00,52.0,45.0,29.99,South,180,0.0,0.0,78,0.00,,,0.20,,2013-09-14 02:52:00,
2013-09-13 23:12:00,52.0,46.0,29.99,South,180,0.0,0.0,79,0.00,,,0.20,,2013-09-14 03:12:00,
2013-09-13 23:22:00,51.0,45.0,29.99,South,180,0.0,0.0,79,0.00,,,0.20,,2013-09-14 03:22:00,
2013-09-13 23:34:00,51.0,45.0,29.99,South,180,0.0,0.0,79,0.00,,,0.20,,2013-09-14 03:34:00,
2013-09-13 23:54:00,50.0,44.0,29.99,South,180,0.0,0.0,80,0.00,,,0.04,,2013-09-14 03:54:00,